This demonstration page uses our WeatherBlox Daily Observations layout. Learn more.

Left ArrowRight Arrow

38.88101, -77.10428

Hourly Observations for October 8, 2022

Temp ( °F °C ) Dew Point ( °F °C ) Humidity (%) Winds ( mph kmh ) Pressure ( in mb ) Visibility ( mi km ) Precip ( " mm )
12:52 am 00:52 Cloudy 60 15.6 44 6.7 55 55 NNW 18 30 30.16 1021 10 16 0.00 0.00
1:52 am 01:52 Cloudy 58 14.4 43 6.1 57 57 NNW 13 20 30.18 1022 10 16 0.00 0.00
2:52 am 02:52 Cloudy 57 13.9 43 6.1 59 59 NW 12 19 30.19 1022 10 16 0.00 0.00
3:52 am 03:52 Cloudy 55 12.8 42 5.6 62 62 NW 13 20 30.19 1022 10 16 0.00 0.00
4:52 am 04:52 Mostly Clear 53 11.7 40 4.4 61 61 NNW 12 19 30.20 1023 10 16 0.00 0.00
5:52 am 05:52 Clear 51 10.6 39 3.9 63 63 NW 9 15 30.23 1024 10 16 0.00 0.00
6:52 am 06:52 Mostly Clear 50 10 39 3.9 66 66 NNW 10 17 30.23 1024 10 16 0.00 0.00
7:52 am 07:52 Mostly Sunny 51 10.6 40 4.4 65 65 NNW 14 22 30.25 1024 10 16 0.00 0.00
8:52 am 08:52 Mostly Sunny 54 12.2 40 4.4 59 59 NNW 14 22 30.27 1025 10 16 0.00 0.00
9:52 am 09:52 Mostly Sunny 56 13.3 40 4.4 55 55 NNW 12 19 30.28 1025 10 16 0.00 0.00
10:52 am 10:52 Partly Cloudy 59 15 38 3.3 45 45 N 17 28 30.28 1025 10 16 0.00 0.00
11:52 am 11:52 Partly Cloudy 57 13.9 38 3.3 49 49 NW 14 22 30.27 1025 10 16 0.00 0.00
12:13 pm 12:13 Mostly Cloudy 56 13.3 38 3.3 51 51 NW 14 22 30.28 1025 10 16 0.00 0.00
12:52 pm 12:52 Mostly Cloudy 58 14.4 38 3.3 47 47 NNW 16 26 30.27 1025 10 16 0.00 0.00
1:52 pm 13:52 Mostly Cloudy 59 15 38 3.3 45 45 NNW 15 24 30.24 1024 10 16 0.00 0.00
2:52 pm 14:52 Partly Cloudy 58 14.4 37 2.8 46 46 WNW 12 19 30.23 1024 10 16 0.00 0.00
3:52 pm 15:52 Mostly Cloudy 60 15.6 36 2.2 40 40 WNW 14 22 30.22 1024 10 16 0.00 0.00
4:52 pm 16:52 Mostly Cloudy 60 15.6 36 2.2 40 40 NW 12 19 30.22 1023 10 16 0.00 0.00
5:52 pm 17:52 Partly Cloudy 57 13.9 35 1.7 43 43 WNW 8 13 30.22 1023 10 16 0.00 0.00
6:52 pm 18:52 Mostly Clear 55 12.8 36 2.2 48 48 NW 9 15 30.22 1023 10 16 0.00 0.00
7:52 pm 19:52 Clear 54 12.2 37 2.8 53 53 NW 9 15 30.23 1024 10 16 0.00 0.00
8:52 pm 20:52 Clear 53 11.7 37 2.8 54 54 WNW 3 6 30.23 1024 10 16 0.00 0.00
9:52 pm 21:52 Clear 51 10.6 39 3.9 63 63 SSW 3 6 30.24 1024 10 16 0.00 0.00
10:52 pm 22:52 Clear 50 10 40 4.4 68 68 SW 3 6 30.24 1024 10 16 0.00 0.00
11:52 pm 23:52 Clear 48 8.9 40 4.4 73 73 WSW 5 7 30.25 1024 10 16 0.00 0.00

Powered by AerisWeather